Flag for Russia Weather past 2 weeks in Barnaul, Russia

Now
48 °F

Sunny.


Feels Like: 43 °F
Forecast: 47 / 61 °F
Wind: 13 mph from Southwest

Location: Barnaul Airport


UV Index: 3 (Moderate)

Visibility: 10 mi


Pressure: 30.15 "Hg

Humidity: 40%

Dew point: 25 °F

Location of BarnaulLocation

Historic Weather in Barnaul

°F

Barnaul temperature yesterday

Maximum temperature yesterday: 64 °F (at 3:00 PM)
Minimum temperature yesterday: 39 °F (at 6:00 AM)
Average temperature yesterday: 54 °F

Past Weeks' High & Low Weather Summary

 TemperatureHumidityPressure
High64 °F (Apr 18, 3:00 PM)100% (Apr 7, 10:00 AM)30.42 "Hg (Apr 7, 10:00 AM)
Low19 °F (Apr 13, 4:30 AM)16% (Apr 10, 2:00 PM)29.47 "Hg (Apr 10, 10:30 PM)
Average43 °F49%30.13 "Hg
* Reported Apr 4 7:00 AM — Apr 19 7:00 AM, Barnaul, Weather by CustomWeather, © 2014

Note: Actual official high and low records may vary slightly from our data, if they occured in-between our weather recording intervals... More about our weather records

Advertising

Historic Weather Conditions — Data for Previous 24 hours

 ConditionsComfort  
Time TempWeatherWind HumidityBarometerVisibility
7:00 AM
Apr 19
46 °FClear.10 mph40%30.15 "Hg10 mi
6:30 AM46 °FClear.10 mph37%30.15 "Hg10 mi
6:00 AM46 °FClear.10 mph37%30.15 "Hg10 mi
5:30 AM46 °FClear.10 mph37%30.18 "Hg10 mi
5:00 AM48 °FClear.10 mph34%30.18 "Hg10 mi
4:30 AM48 °FClear.10 mph34%30.18 "Hg10 mi
4:00 AM48 °FClear.8 mph34%30.18 "Hg10 mi
3:30 AM50 °FClear.10 mph32%30.18 "Hg10 mi
3:00 AM50 °FClear.10 mph35%30.18 "Hg10 mi
2:30 AM50 °FClear.10 mph35%30.21 "Hg10 mi
2:00 AM52 °FClear.10 mph30%30.21 "Hg10 mi
1:30 AM52 °FClear.10 mph30%30.21 "Hg10 mi
1:00 AM54 °FClear.6 mph30%30.21 "Hg10 mi
12:30 AM54 °FClear.6 mph30%30.21 "Hg10 mi
12:00 AM54 °FClear.3 mph30%30.21 "Hg10 mi
11:30 PM
Apr 18
55 °FClear.6 mph28%30.24 "Hg10 mi
11:00 PM55 °FClear.3 mph28%30.24 "Hg10 mi
10:30 PM55 °FClear.3 mph28%30.24 "Hg10 mi
10:00 PM55 °FClear.1 mph28%30.24 "Hg10 mi
9:30 PM55 °FClear.3 mph31%30.24 "Hg10 mi
9:00 PM55 °FSunny.No wind31%30.24 "Hg10 mi
8:30 PM57 °FSunny.1 mph29%30.24 "Hg10 mi
8:00 PM59 °FSunny.1 mph27%30.24 "Hg10 mi
7:30 PM61 °FSunny.3 mph25%30.24 "Hg10 mi
7:00 PM61 °FSunny.6 mph25%30.24 "Hg10 mi
6:30 PM61 °FSunny.8 mph23%30.24 "Hg10 mi
6:00 PM63 °FSunny.8 mph22%30.24 "Hg10 mi
5:30 PM63 °FPassing clouds.10 mph24%30.24 "HgN/A
5:00 PM61 °FSunny.13 mph25%30.24 "Hg10 mi
4:30 PM63 °FSunny.6 mph22%30.24 "Hg10 mi
4:00 PM63 °FPassing clouds.10 mph20%30.27 "HgN/A
3:30 PM63 °FPassing clouds.10 mph20%30.27 "HgN/A
3:00 PM64 °FPassing clouds.10 mph18%30.27 "HgN/A
2:30 PM63 °FPassing clouds.8 mph20%30.27 "HgN/A
2:00 PM63 °FPassing clouds.8 mph22%30.27 "HgN/A
1:30 PM63 °FPassing clouds.8 mph22%30.30 "HgN/A
1:00 PM61 °FSunny.8 mph23%30.30 "Hg10 mi
12:30 PM59 °FPassing clouds.8 mph27%30.30 "HgN/A
12:00 PM59 °FPassing clouds.8 mph25%30.30 "HgN/A
11:30 AM59 °FPassing clouds.6 mph29%30.30 "HgN/A
11:00 AM59 °FPassing clouds.3 mph21%30.33 "HgN/A
10:30 AM57 °FSunny.1 mph31%30.33 "Hg10 mi
10:00 AM55 °FSunny.1 mph31%30.33 "Hg10 mi
9:30 AM54 °FSunny.No wind35%30.33 "Hg10 mi
9:00 AM50 °FSunny.No wind40%30.33 "Hg10 mi
8:30 AM48 °FSunny.No wind43%30.33 "Hg10 mi
8:00 AM45 °FSunny.3 mph49%30.30 "Hg10 mi
Weather by CustomWeather, © 2014

See weather overview